Terminal Aerodrome Forecast
Issued by NWS Tuscon, AZ

Home | Current Version | Previous Version | Text Only | Print | Product List | Glossary On
Versions: 1 2 3 4 5 6 7 8 9 10 11 12 13 14 15 16 17 18 19 20 21
000
FTUS45 KTWC 232000 AAA
TAFDUG
TAF AMD
KDUG 232007Z 2320/2418 09011G20KT P6SM VCSH SCT070 BKN160
     FM240300 09008KT P6SM SCT100 BKN150=

USA.gov is the U.S. government's official web portal to all federal, state and local government web resources and services.